Home > Weather > Nancy > Past weeks

Flag for France Past Weather in Nancy, Lorraine, France — Yesterday and Last 2 Weeks

Now
50 °F

Fog.


Feels Like: 50 °F
Forecast: 55 / 73 °F
Wind: No wind

Location: Nancy / Ochey

Current Time: May 26, 2016 at 7:02:29 AM

Latest Report: May 26, 2016 at 6:30 AM


Visibility: 3 mi

Pressure: 29.98 "Hg

Humidity: 94%

Dew Point: 48 °F

Location of NancyLocation

Past Weather in Nancy — Graph

°F

Nancy Temperature Yesterday

Maximum temperature yesterday: 68 °F (at 7:00 PM)
Minimum temperature yesterday: 48 °F (at 2:00 AM)
Average temperature yesterday: 57 °F

High & Low Weather Summary for the Past Weeks

 TemperatureHumidityPressure
High73 °F (May 21, 5:00 PM)100% (May 11, 6:00 AM)30.18 "Hg (May 11, 6:00 AM)
Low34 °F (May 15, 5:30 AM)46% (May 25, 5:30 PM)29.50 "Hg (May 12, 3:30 AM)
Average54 °F82%29.92 "Hg
* Reported May 11 6:00 AM — May 26 6:00 AM, Nancy, Weather by CustomWeather, © 2016

Note: Actual official high and low records may vary slightly from our data, if they occured in-between our weather recording intervals... More about our weather records

Advertising

Nancy Weather History for the Previous 24 Hours

Scroll right to see more
 ConditionsComfort  
Time TempWeatherWind HumidityBarometerVisibility
6:00 AM
Thu, May 26
50 °FFog.1 mph94%29.98 "Hg2 mi
5:30 AM50 °FFog.3 mph94%29.98 "Hg3 mi
5:00 AM48 °FClear.No wind94%29.95 "Hg4 mi
4:30 AM50 °FClear.No wind94%29.95 "Hg4 mi
4:00 AM50 °FClear.2 mph94%29.98 "Hg6 mi
3:30 AM50 °FClear.5 mph94%29.98 "Hg10 mi
3:00 AM50 °FClear.No wind100%29.98 "Hg10 mi
2:30 AM48 °FClear.2 mph94%29.98 "Hg10 mi
2:00 AM50 °FClear.No wind94%29.98 "Hg10 mi
1:30 AM52 °FClear.1 mph88%29.98 "Hg10 mi
1:00 AM52 °FClear.No wind88%29.98 "Hg10 mi
12:30 AM54 °FPassing clouds.3 mph82%29.98 "HgN/A
12:00 AM54 °FClear.No wind82%29.95 "Hg10 mi
11:30 PM
Wed, May 25
55 °FClear.3 mph77%29.95 "Hg10 mi
11:00 PM55 °FClear.6 mph77%29.95 "Hg10 mi
10:30 PM57 °FClear.5 mph72%29.95 "Hg10 mi
10:00 PM57 °FSunny.3 mph77%29.95 "Hg10 mi
9:30 PM59 °FSunny.2 mph68%29.95 "Hg10 mi
9:00 PM63 °FSunny.3 mph59%29.95 "Hg10 mi
8:30 PM64 °FSunny.2 mph56%29.92 "Hg10 mi
8:00 PM66 °FPassing clouds.3 mph56%29.92 "HgN/A
7:30 PM68 °FSunny.No wind49%29.92 "Hg10 mi
7:00 PM68 °FSunny.No wind49%29.92 "Hg10 mi
6:30 PM64 °FSunny.2 mph56%29.92 "Hg10 mi
6:00 PM66 °FBroken clouds.2 mph49%29.92 "HgN/A
5:30 PM66 °FPartly sunny.3 mph46%29.92 "HgN/A
5:00 PM66 °FScattered clouds.3 mph49%29.92 "HgN/A
4:30 PM64 °FMostly cloudy.5 mph49%29.95 "HgN/A
4:00 PM64 °FPartly sunny.3 mph56%29.92 "HgN/A
3:30 PM66 °FBroken clouds.3 mph49%29.95 "HgN/A
3:00 PM64 °FScattered clouds.3 mph52%29.92 "HgN/A
2:30 PM63 °FOvercast.5 mph59%29.95 "HgN/A
2:00 PM63 °FPartly sunny.6 mph59%29.95 "HgN/A
1:30 PM64 °FPartly sunny.3 mph52%29.95 "HgN/A
1:00 PM63 °FSunny.3 mph64%29.95 "Hg10 mi
12:30 PM61 °FPartly sunny.3 mph59%29.95 "HgN/A
12:00 PM61 °FPartly sunny.No wind63%29.95 "HgN/A
11:30 AM61 °FPassing clouds.3 mph68%29.95 "HgN/A
11:00 AM59 °FBroken clouds.2 mph68%29.95 "HgN/A
10:30 AM57 °FPassing clouds.3 mph72%29.95 "HgN/A
10:00 AM57 °FPassing clouds.6 mph72%29.95 "HgN/A
9:30 AM57 °FPassing clouds.6 mph72%29.95 "HgN/A
9:00 AM57 °FOvercast.5 mph72%29.95 "HgN/A
8:30 AM52 °FPartly sunny.3 mph88%29.95 "HgN/A
8:00 AM50 °FLow clouds.2 mph94%29.95 "Hg6 mi
7:30 AM50 °FClear.2 mph94%29.95 "Hg6 mi
7:00 AM48 °FClear.2 mph100%29.95 "Hg6 mi
Weather by CustomWeather, © 2016

See weather overviewHow to use our weather pages